Theta_e
316 313 308 307 307 307 307 307 306 306 307 308 310 312 314 315 315 315 314 314 315 316 317 319 319 319 320 320 321 321 322 323 323 323 324 324 324 324 324 323 322 321 320 319 320 322 321 317 313 312 312 311 312 314 315 316 317 317 318 318 318 318 318
318 315 309 306 307 307 307 307 306 306 307 308 311 315 318 317 316 315 315 316 317 318 318 318 318 319 319 319 320 320 320 321 321 321 322 323 322 323 323 322 320 318 318 317 318 318 315 313 313 313 313 313 313 314 314 315 316 317 317 318 318 318 319
319 316 310 307 307 307 307 306 306 305 305 307 310 315 317 317 315 315 317 319 319 318 317 317 319 320 320 320 319 319 320 320 320 321 321 321 321 322 322 321 318 317 318 319 319 315 309 308 312 314 315 314 313 313 314 314 314 315 316 317 318 318 319
318 314 309 307 308 307 306 306 305 305 305 305 308 312 314 314 312 313 317 319 318 317 316 317 320 320 319 319 318 319 320 320 320 320 320 321 321 321 319 317 315 313 313 314 316 311 306 306 310 314 315 314 313 312 312 313 313 312 313 314 314 314 315
317 311 308 308 308 307 306 305 305 304 305 307 309 311 311 310 309 310 313 315 314 313 313 317 319 319 318 318 317 318 319 320 319 320 319 318 317 315 314 311 308 307 306 306 307 305 304 305 308 313 314 313 312 310 309 310 310 310 311 311 311 310 310
316 310 308 308 308 307 305 304 304 304 305 308 309 310 309 307 307 307 308 308 308 309 311 314 316 317 316 315 315 316 318 318 318 316 313 310 308 307 307 306 304 304 303 303 303 303 303 303 305 310 313 314 312 309 308 308 307 307 308 308 308 308 308
315 311 309 309 308 307 305 304 305 304 306 307 308 308 306 306 306 305 305 305 305 306 307 308 309 309 309 308 309 310 311 311 311 308 306 305 305 304 304 304 304 304 304 304 304 303 302 302 303 307 312 314 312 309 308 308 308 308 307 305 306 306 306
315 312 310 309 308 307 305 304 305 305 306 307 307 306 306 305 305 305 305 305 305 305 305 305 305 305 305 305 305 305 305 306 305 305 304 305 304 304 304 305 306 307 307 307 306 305 304 303 302 303 309 313 311 309 308 308 308 308 306 305 304 305 305
315 314 313 310 309 308 306 305 305 305 306 306 306 306 305 305 305 305 305 305 305 305 305 305 305 305 305 305 304 305 304 304 304 304 304 304 305 306 307 308 309 310 309 308 308 309 308 307 304 302 305 309 310 309 309 308 307 306 305 304 304 305 305
314 314 312 309 308 308 307 305 304 305 305 305 305 305 305 305 305 305 305 305 306 305 305 305 305 305 304 304 304 304 304 304 304 304 304 305 308 310 310 311 311 311 311 310 310 310 309 308 307 305 305 307 308 309 309 308 307 306 305 305 305 305 305
314 313 311 309 308 307 306 306 305 305 305 305 305 305 305 305 305 306 305 306 306 305 305 305 305 304 304 304 304 304 304 304 304 305 305 307 309 310 311 311 311 311 311 312 312 311 311 310 310 309 308 308 308 309 309 309 307 306 306 306 306 306 305
316 313 311 312 312 309 307 306 305 305 305 305 305 305 305 306 305 306 306 306 306 305 305 305 305 305 305 304 304 304 305 305 305 306 307 307 308 309 310 310 310 310 311 311 312 312 312 312 312 312 311 311 311 311 311 310 308 307 308 307 307 307 305
317 315 312 313 314 311 310 309 306 306 306 305 306 306 306 306 306 306 306 306 306 305 305 305 305 305 305 305 305 305 306 306 306 306 307 307 307 307 308 309 309 310 310 310 310 311 312 312 312 312 312 312 312 312 312 312 310 309 309 309 308 307 306
318 316 313 313 314 311 312 313 309 307 306 306 306 306 306 306 306 306 306 306 306 306 306 306 306 306 306 306 306 306 306 306 306 306 306 306 307 307 307 307 307 308 308 309 309 309 310 310 311 311 312 312 312 312 311 312 312 311 310 310 309 307 306
318 316 314 314 313 310 312 316 313 309 306 306 307 307 307 307 307 306 307 306 306 306 306 306 306 306 307 307 308 308 308 308 307 307 307 306 306 307 307 307 307 307 307 307 307 308 308 309 309 310 310 311 311 312 311 311 311 311 311 311 310 309 307
318 316 315 315 313 310 312 316 315 312 308 307 307 307 307 307 307 307 307 307 307 307 307 307 308 308 308 309 310 311 312 312 312 311 310 309 309 308 308 309 310 310 309 308 308 307 308 308 309 309 309 309 310 311 311 311 311 311 312 311 311 310 309
318 317 316 315 313 312 313 315 316 316 312 308 307 308 308 307 308 308 308 309 309 308 308 308 309 310 310 311 312 313 313 314 315 315 314 314 313 313 312 312 312 313 313 312 311 309 308 308 309 310 310 309 310 310 310 311 311 311 310 311 311 310 310
319 318 317 316 314 314 315 315 316 317 316 312 309 309 310 309 309 309 310 310 310 309 309 310 312 313 314 314 314 314 314 314 314 315 316 316 316 316 315 315 315 315 315 315 314 312 311 310 310 311 312 312 311 310 310 311 311 310 309 309 309 310 310
321 320 317 316 315 315 315 316 316 317 318 316 313 312 312 312 311 311 311 311 311 311 311 312 314 315 316 316 315 315 315 315 315 315 316 316 316 316 316 316 316 316 316 316 315 315 314 313 311 311 313 313 312 312 311 311 311 310 309 309 310 310 310
322 321 319 316 315 315 315 316 316 316 317 317 317 315 315 314 314 313 312 312 312 312 313 314 315 315 316 316 316 315 316 316 316 316 316 315 315 316 317 316 316 316 316 316 316 315 315 314 313 312 312 312 312 312 312 312 311 311 311 311 311 310 310
322 322 320 319 317 316 315 316 316 316 316 318 318 317 316 316 316 315 314 313 313 313 314 315 315 316 316 316 316 316 316 316 316 317 316 315 315 315 315 315 315 315 315 316 316 316 315 314 313 313 313 312 311 311 312 312 311 311 311 311 311 310 310
322 321 321 320 318 317 316 316 316 316 316 317 317 318 317 317 317 316 314 314 314 314 315 315 315 315 316 316 316 317 317 317 317 317 317 317 316 315 315 315 315 315 316 316 316 316 316 315 313 312 312 312 312 311 311 311 311 311 311 311 310 310 309
322 322 321 320 319 317 316 316 316 316 317 317 317 318 318 317 317 316 315 314 315 314 314 314 313 313 314 316 316 317 317 317 317 317 316 316 315 315 315 315 315 316 316 316 316 316 316 315 314 313 311 311 311 311 309 309 309 310 310 309 309 309 308
321 321 321 320 319 318 317 316 315 315 317 317 317 317 316 315 316 316 315 315 315 314 314 314 312 312 313 315 316 317 317 316 316 315 315 315 315 314 315 315 315 315 316 316 316 316 316 316 315 314 312 309 309 309 308 307 308 309 309 309 309 309 308
320 320 320 319 319 319 318 317 316 316 316 316 316 315 314 314 315 316 317 316 314 314 314 313 312 312 314 315 316 316 315 315 314 313 313 312 311 310 309 310 311 312 314 316 317 317 317 317 316 315 313 309 308 308 307 307 307 308 309 309 308 308 307
319 319 319 319 319 319 319 318 318 317 316 315 315 315 315 315 316 317 316 314 313 314 314 313 312 314 315 315 316 316 314 312 310 308 306 305 304 303 303 303 304 305 307 310 313 316 318 318 317 316 313 308 307 307 307 306 307 308 308 308 307 306 306
318 318 318 319 319 319 319 318 318 316 315 315 316 316 316 317 317 317 315 313 313 314 314 312 313 315 316 315 314 312 310 307 305 303 303 302 302 302 302 302 303 304 305 307 310 314 317 317 317 315 312 308 307 307 306 306 307 307 307 307 306 305 304
316 317 317 318 319 319 318 318 317 316 316 316 317 317 317 317 316 315 314 313 313 313 313 314 315 315 315 313 310 307 306 305 304 303 303 303 303 302 302 302 303 304 306 308 310 313 316 316 316 314 311 308 307 306 306 306 306 307 307 306 305 304 303
315 315 316 318 318 319 318 317 316 317 317 317 317 317 317 316 316 315 315 314 314 314 315 315 316 315 313 310 307 306 305 304 304 303 303 303 303 302 302 302 302 303 304 306 309 311 313 313 313 311 309 307 306 306 305 306 306 307 307 305 304 303 303
314 315 315 316 318 318 318 317 317 317 317 317 317 317 316 316 316 316 316 315 315 315 315 315 315 314 310 307 306 306 305 304 304 304 303 303 303 302 302 302 301 302 302 304 306 308 310 310 309 307 306 305 305 305 306 306 306 306 305 303 303 303 302
312 313 314 315 316 316 316 316 316 317 316 315 315 315 316 316 316 316 316 316 315 315 315 315 313 310 308 306 306 306 307 306 305 305 304 303 303 302 302 302 301 301 302 302 304 307 308 308 306 305 305 305 305 306 306 305 304 303 303 302 302 302 302
309 310 311 313 314 315 315 315 316 316 316 315 314 314 315 315 315 315 314 314 315 314 313 311 308 307 307 308 307 307 307 306 305 305 304 303 303 302 302 301 301 302 302 303 304 306 308 307 307 306 306 305 305 305 304 303 303 302 302 302 301 301 301
308 308 308 309 312 314 315 315 316 316 316 315 314 314 314 314 314 314 313 313 312 311 309 308 308 309 308 308 306 306 306 305 305 304 303 303 302 302 302 302 302 302 303 304 305 305 306 306 306 305 305 304 304 304 303 303 302 302 301 300 300 300 300
307 307 307 307 308 309 311 312 313 314 314 315 314 314 314 314 314 314 313 311 309 308 307 308 308 307 305 304 303 303 304 304 304 303 303 302 302 302 302 303 303 304 304 304 305 305 305 305 305 305 304 304 304 303 303 303 302 302 301 301 300 300 299
305 306 306 307 307 307 307 308 309 310 312 313 313 313 312 313 313 313 311 309 307 306 306 305 304 303 302 302 302 303 304 304 303 303 303 302 302 302 302 303 304 304 304 304 304 304 304 303 304 303 303 303 303 303 303 303 302 302 301 300 298 297 296
304 305 305 305 307 307 307 307 306 307 308 309 309 309 309 309 310 310 309 307 305 303 303 302 302 302 302 302 302 303 303 303 303 303 303 303 303 303 303 303 304 304 304 304 304 303 303 303 303 303 302 302 302 301 301 300 299 298 297 296 296 295 295
304 304 304 304 305 307 307 307 307 306 305 305 305 306 307 308 308 307 306 304 303 302 303 303 303 302 302 302 302 303 303 303 303 303 303 303 303 303 303 303 303 303 303 303 303 303 303 302 302 301 300 299 298 298 297 297 296 296 295 295 295 294 295
Wind_Speed
7 8 6 6 6 6 5 4 4 3 3 4 5 4 4 4 2 1 1 2 4 5 6 7 7 7 7 7 8 8 8 8 8 8 8 8 8 10 12 11 9 8 8 9 9 10 11 11 8 6 6 5 4 6 6 5 4 4 3 3 3 3 4
7 8 6 5 5 5 4 4 3 2 3 4 6 7 6 5 3 2 3 5 7 7 7 7 7 8 8 8 9 10 10 10 10 10 10 11 11 12 12 11 10 10 9 10 11 11 13 12 11 11 11 9 10 12 11 10 10 8 7 6 6 5 5
8 8 6 4 5 5 4 4 3 1 2 3 6 7 6 4 4 4 5 7 8 7 7 8 9 10 10 10 11 11 11 11 11 11 12 13 14 13 12 11 11 11 11 13 13 12 12 12 12 13 13 12 14 14 13 13 12 11 10 9 8 7 7
9 8 6 4 5 6 6 5 3 3 3 5 7 8 6 4 4 5 6 6 6 5 6 10 11 12 12 12 12 12 12 12 12 13 13 14 15 15 13 11 10 9 9 11 11 10 11 13 15 16 15 14 15 14 12 12 12 11 10 9 9 9 8
8 7 6 5 6 7 7 6 4 4 5 7 9 8 6 5 5 6 6 6 5 5 8 11 12 12 11 11 12 13 14 14 14 14 14 14 13 13 12 10 9 9 9 9 9 9 11 14 16 18 17 15 14 13 11 10 10 9 9 9 9 9 9
5 6 6 5 6 8 8 6 5 5 7 9 10 8 7 7 7 7 7 7 7 8 10 11 11 11 10 10 11 12 13 15 15 13 12 12 11 10 10 10 10 10 11 11 11 11 12 13 15 18 18 15 13 12 10 9 9 9 8 8 9 8 8
4 6 5 4 6 8 7 6 6 6 8 10 10 9 8 9 9 10 10 10 10 11 11 11 11 11 10 10 11 11 12 13 13 12 11 11 11 11 11 12 13 14 14 14 13 13 13 12 13 16 18 17 14 12 10 8 7 6 7 8 8 7 7
7 6 5 5 6 7 6 6 6 6 8 9 10 9 9 9 10 11 11 11 12 12 12 12 12 13 12 12 13 12 13 13 12 12 12 12 13 14 14 15 15 16 16 16 15 15 14 13 13 13 16 18 15 12 10 8 6 5 6 7 7 7 7
9 9 8 7 7 6 5 6 5 5 7 9 9 9 9 9 9 9 10 10 11 11 11 11 11 12 12 11 12 12 13 13 13 12 13 14 15 16 16 16 16 16 17 16 16 15 14 13 13 12 13 14 14 13 10 8 8 6 7 8 7 8 8
11 11 10 8 7 7 6 5 4 4 6 8 8 9 8 8 8 8 8 9 9 10 10 10 10 10 10 10 11 12 13 14 13 13 14 15 16 17 16 16 16 16 16 16 15 15 14 14 13 12 12 11 11 11 10 9 10 9 8 9 9 9 9
10 12 12 8 7 8 6 4 2 2 5 6 7 8 8 8 8 7 8 8 8 9 9 10 10 10 10 10 11 13 14 14 14 14 14 15 15 15 15 14 13 14 14 14 14 14 14 15 14 14 14 12 11 11 11 10 11 10 9 9 10 10 10
15 15 17 14 6 6 6 4 4 4 4 6 7 8 8 8 8 8 8 8 8 8 9 10 10 10 10 10 11 12 13 13 13 13 13 13 13 13 12 12 11 11 11 11 11 11 11 12 12 13 13 13 12 12 11 11 10 10 10 10 11 11 11
18 18 20 19 12 9 9 6 6 5 5 5 6 7 8 8 8 8 8 8 7 8 8 9 9 9 9 9 10 10 10 10 10 9 10 9 10 10 9 9 8 8 8 8 8 8 8 8 8 8 9 10 10 10 10 10 9 9 10 10 11 12 12
16 20 21 19 16 18 14 8 7 7 5 6 5 6 7 7 7 7 7 7 7 7 7 8 8 9 9 8 8 8 8 8 7 7 7 6 6 6 6 6 5 5 5 5 5 5 5 5 5 5 5 6 7 7 8 8 8 9 10 11 12 12 13
12 19 21 18 19 23 16 9 9 9 7 8 7 7 8 7 8 8 7 8 7 7 7 7 8 8 8 7 7 7 7 7 6 6 5 5 4 4 4 5 4 3 3 3 3 3 2 2 3 2 2 3 4 5 6 7 7 8 9 10 11 12 13
11 16 20 18 22 24 16 10 11 11 10 10 9 9 9 8 9 9 9 9 8 7 6 6 6 6 6 6 6 6 5 5 5 5 4 4 4 3 3 3 3 3 3 2 2 2 2 1 1 1 1 1 2 3 4 5 6 6 7 8 8 10 11
12 14 17 20 24 25 19 14 13 13 13 13 12 11 10 9 10 10 9 9 8 7 6 4 4 4 4 5 4 4 3 2 2 3 2 2 2 2 2 2 2 2 2 2 1 0 1 1 1 1 2 2 2 2 2 3 5 6 6 6 7 8 9
13 13 15 21 27 27 23 18 15 15 16 16 15 14 12 12 11 11 11 10 9 8 6 5 5 5 5 5 5 4 3 2 1 1 1 2 2 1 1 2 2 2 2 2 2 2 2 2 2 2 2 2 2 2 3 3 4 5 6 7 7 7 8
14 13 14 20 27 28 25 21 18 18 18 19 19 18 17 15 14 13 13 12 11 9 7 8 8 6 5 6 7 6 5 4 4 3 4 5 6 6 5 5 5 5 5 5 4 5 5 5 4 4 4 3 3 3 4 4 4 4 4 6 7 8 9
15 14 15 19 23 26 26 24 21 20 19 20 21 22 22 21 19 17 16 15 14 12 11 11 10 8 6 7 8 7 7 8 7 7 7 8 9 9 9 9 9 10 9 9 8 8 8 8 8 7 7 6 5 5 5 5 5 4 3 4 6 8 9
16 15 16 18 20 22 24 24 23 21 19 18 20 23 25 25 24 22 21 20 19 17 15 14 13 11 9 8 7 7 9 10 11 11 10 10 11 11 12 12 12 12 13 13 12 12 12 12 12 11 11 10 9 8 7 7 7 7 6 6 7 8 10
18 17 18 20 21 22 23 23 24 24 23 21 21 24 25 26 26 26 25 24 23 21 19 16 13 11 9 7 7 8 9 9 10 12 12 13 14 13 13 13 13 14 14 15 15 16 16 16 16 15 15 13 12 12 11 10 10 10 10 9 8 9 10
17 19 20 23 25 26 26 25 26 27 27 24 22 22 22 23 25 26 25 25 26 25 24 20 16 14 11 9 9 10 10 10 11 13 14 14 14 13 13 14 14 14 15 16 17 18 18 19 18 19 18 16 14 14 14 12 12 12 12 11 11 10 10
13 16 20 23 26 28 29 29 28 28 26 23 22 21 20 22 24 23 20 23 29 30 27 23 20 19 15 11 12 12 12 12 13 13 13 14 13 13 14 14 14 14 15 16 16 18 19 20 20 20 19 18 16 16 16 15 14 13 13 14 14 13 11
9 11 14 17 20 23 26 29 29 29 28 27 27 26 24 23 23 20 17 19 25 28 25 19 18 18 13 11 12 12 12 12 13 13 14 14 14 14 14 15 16 16 16 16 16 17 19 20 21 20 19 19 18 18 18 17 16 15 15 16 16 15 13
9 10 11 14 17 20 23 24 24 25 26 27 26 25 25 24 21 19 16 15 18 22 22 20 19 15 13 12 12 12 12 12 13 13 12 12 11 11 12 13 14 15 16 16 17 17 18 20 21 20 19 20 20 20 19 18 16 16 17 17 16 15 15
10 11 12 14 16 18 20 20 20 20 21 22 22 22 23 21 18 17 16 13 14 18 21 22 19 16 13 12 11 11 10 10 9 8 7 6 6 6 7 8 9 11 13 14 15 17 17 19 19 18 18 20 21 20 19 17 17 17 18 18 17 17 16
10 11 12 14 15 18 19 20 20 19 19 20 20 21 20 19 17 18 19 18 17 18 20 19 17 14 13 12 10 8 7 7 6 5 3 3 3 3 3 4 5 7 9 11 12 14 14 15 15 13 15 19 21 20 18 17 18 19 19 19 18 18 18
10 11 12 12 14 17 19 20 20 21 22 22 21 20 20 19 17 18 20 20 19 19 19 17 15 14 14 12 10 7 6 6 5 4 3 2 3 3 3 4 4 4 6 7 8 9 9 9 9 10 13 17 19 18 18 18 19 20 20 19 19 19 19
8 10 12 13 14 16 18 19 21 22 23 22 21 21 21 20 18 17 17 18 18 19 18 17 17 16 14 13 10 7 5 4 4 3 4 4 5 5 6 6 6 6 5 5 5 4 4 5 6 9 13 16 17 17 18 19 19 20 19 19 19 20 20
5 6 9 11 15 17 19 20 22 21 21 22 22 21 20 19 18 18 17 18 19 19 19 18 17 16 14 11 8 6 4 4 4 5 6 6 7 8 8 9 8 8 7 6 5 3 2 4 7 11 13 15 17 18 18 19 19 19 19 19 20 21 21
4 4 5 6 10 14 17 20 20 18 19 21 20 18 17 17 17 17 17 18 19 19 19 18 16 15 12 9 7 5 4 4 5 6 8 8 9 9 10 9 9 8 8 7 5 3 3 5 9 11 14 15 17 17 17 18 18 19 20 20 21 22 23
7 6 5 5 6 8 10 12 14 14 16 18 19 18 17 18 18 17 17 17 19 19 18 16 15 13 10 8 6 5 4 5 6 7 8 8 9 9 9 9 8 7 7 6 6 5 5 7 8 11 12 14 15 16 17 18 19 20 20 21 22 24 26
11 10 9 8 7 8 8 9 10 11 13 16 18 19 20 20 20 20 19 19 18 17 16 15 13 11 9 7 6 5 5 5 6 6 7 8 8 9 8 8 7 7 7 7 7 8 8 9 10 11 12 14 16 17 18 19 21 21 22 24 25 27 28
12 12 11 11 11 10 10 10 11 12 14 16 17 19 21 22 22 22 21 20 19 17 16 13 11 9 7 6 5 5 5 5 5 6 7 7 8 8 7 7 7 7 8 8 9 9 10 11 12 13 14 15 17 18 19 20 22 23 24 25 26 27 27
14 13 11 12 14 15 13 13 14 15 16 17 19 20 20 20 21 21 21 20 19 17 14 12 9 7 6 6 6 6 6 6 6 7 7 7 7 7 7 7 8 8 9 9 10 10 11 12 13 14 15 16 17 18 19 20 21 22 23 24 25 26 26
20 17 14 12 14 17 18 18 19 19 18 18 19 20 20 20 21 22 22 21 20 17 14 11 9 7 6 6 7 7 7 8 8 8 8 8 7 7 7 8 9 9 10 10 10 11 12 13 14 15 16 17 17 17 18 19 20 21 22 23 24 24 24
Wind_Direction
53 50 69 88 91 88 81 72 71 89 115 131 141 147 148 146 146 166 192 140 130 136 135 135 139 139 143 143 145 149 149 148 143 144 154 160 163 164 162 158 150 149 154 164 168 159 143 128 117 103 90 84 80 78 78 75 67 52 40 25 9 353 334
41 36 48 67 69 70 67 55 46 62 100 124 133 139 144 146 143 146 150 133 126 126 125 127 131 134 137 139 142 142 141 142 140 142 146 145 149 154 152 150 147 147 146 148 151 148 141 134 128 121 112 104 97 88 86 86 82 76 69 62 56 44 30
37 29 35 47 40 41 45 48 57 89 114 118 128 138 145 139 126 126 132 131 128 126 124 125 126 128 132 133 137 141 141 143 144 144 146 144 143 145 146 146 145 145 144 146 148 145 142 144 142 136 125 114 106 98 94 92 88 85 80 74 69 59 48
36 34 43 47 33 33 33 40 66 109 127 124 124 126 124 113 114 125 135 138 138 134 130 134 134 130 129 128 129 134 137 140 142 142 143 144 142 141 141 142 143 145 149 154 157 150 147 151 149 142 135 125 114 105 101 97 89 86 82 75 68 61 52
36 46 62 53 36 36 35 39 68 103 120 124 122 118 112 107 116 128 140 150 151 145 141 144 145 139 135 133 128 128 130 131 132 133 134 136 138 139 139 140 140 139 140 143 146 143 145 154 154 145 138 131 118 109 103 96 88 78 72 66 58 52 47
49 64 75 59 43 42 41 50 73 96 116 124 120 118 118 115 119 124 128 135 136 136 140 145 149 148 146 143 136 135 134 132 131 130 129 128 128 131 132 131 127 124 124 123 124 127 132 144 153 148 144 138 125 116 108 95 86 73 61 57 50 42 36
108 99 95 79 58 48 49 64 84 101 118 126 124 122 121 118 120 122 120 120 121 123 128 132 135 135 132 130 131 135 135 132 129 125 121 119 120 122 120 118 117 115 113 112 111 113 117 127 144 150 149 144 132 123 114 103 96 80 61 55 49 40 30
150 139 136 122 88 64 59 69 87 113 126 132 131 126 124 122 123 124 123 121 119 117 117 118 119 118 117 118 119 122 124 122 120 119 117 117 118 117 114 113 113 111 108 106 105 105 109 118 130 142 150 147 139 132 123 111 106 94 73 62 51 43 36
162 159 153 138 115 95 80 75 86 123 138 138 138 134 131 130 130 130 130 127 123 119 116 115 115 113 112 113 115 118 118 116 115 118 118 118 117 114 111 111 111 109 107 105 105 105 106 111 118 130 146 150 144 138 130 114 100 89 81 73 57 48 44
160 158 150 137 127 116 95 79 87 130 145 146 145 143 142 141 141 142 140 135 128 121 116 113 111 109 109 111 115 117 115 113 115 117 117 117 116 112 109 109 107 105 105 105 104 104 104 107 111 120 131 143 145 139 132 117 99 84 76 71 60 50 46
186 178 176 168 139 122 110 92 107 154 155 155 154 150 149 147 148 149 147 142 133 124 117 110 106 104 107 111 115 116 113 114 117 117 117 118 117 115 112 110 106 102 102 102 100 101 102 104 105 106 110 117 123 121 117 110 98 84 71 62 56 49 44
214 197 191 193 176 138 151 152 156 183 181 169 163 158 156 153 153 154 150 145 136 127 119 111 107 106 108 111 113 114 114 115 117 117 119 120 119 118 116 114 109 103 101 98 97 99 98 99 100 100 100 101 100 95 91 92 91 81 66 54 48 43 41
215 201 194 203 211 192 193 189 170 189 206 190 177 166 162 158 158 159 154 148 138 130 123 116 113 109 109 110 109 111 111 111 112 111 113 117 118 118 117 116 116 112 108 102 97 96 94 93 93 92 92 90 86 80 75 74 73 66 53 42 38 34 35
224 209 201 208 205 194 201 202 183 195 210 205 196 176 168 164 163 163 158 154 145 136 130 123 121 115 109 104 97 97 98 99 101 98 97 99 102 109 111 108 109 111 112 107 100 94 90 89 84 77 77 75 73 70 66 62 57 49 37 29 27 26 26
241 217 207 206 195 195 204 205 194 203 208 209 207 191 183 174 169 168 165 163 159 152 146 136 130 124 115 107 94 88 85 85 91 91 90 90 86 89 92 88 84 83 92 105 108 107 102 93 80 66 54 54 57 57 57 55 49 43 31 21 18 17 18
238 214 209 207 201 203 209 203 199 206 211 215 216 208 203 192 181 178 174 172 169 165 158 145 137 130 122 115 103 94 84 76 78 79 79 83 83 81 77 75 73 66 62 72 98 132 140 114 84 52 13 16 28 35 40 36 31 31 27 20 15 11 10
231 216 213 209 208 213 216 213 211 212 215 218 218 215 213 207 199 192 186 184 180 176 171 159 154 151 145 139 131 124 111 87 70 61 55 50 60 70 60 52 49 45 41 39 41 127 176 168 334 333 334 335 344 359 5 5 5 11 16 14 10 4 359
243 238 225 212 212 218 222 222 224 223 222 221 219 218 215 212 210 204 200 197 190 185 180 174 173 171 172 174 171 171 177 181 214 306 307 300 302 302 314 320 316 318 329 339 338 322 299 280 283 300 309 308 304 303 313 325 341 1 11 11 7 3 357
249 249 233 216 216 220 223 229 233 231 228 225 223 222 221 218 216 212 212 211 204 199 191 185 188 193 202 207 202 200 211 219 232 257 275 279 275 274 277 278 281 284 283 287 294 298 300 295 284 280 276 276 274 275 286 297 311 339 0 6 6 3 358
249 248 235 224 221 223 226 232 236 237 237 234 232 232 231 229 226 220 218 218 212 206 198 195 196 202 216 220 215 221 235 241 247 255 266 276 273 265 262 262 266 270 270 270 273 277 282 285 286 283 275 269 267 267 271 276 281 295 321 347 356 353 349
247 247 241 235 231 229 232 237 240 245 248 244 240 239 237 237 238 233 227 226 222 213 204 202 203 206 216 225 230 249 261 260 261 260 261 274 278 266 256 255 259 262 263 263 264 266 269 273 278 279 277 274 272 271 272 271 273 280 294 313 329 337 339
245 245 244 242 238 236 241 246 249 255 258 252 245 243 240 239 239 234 226 224 226 223 215 211 213 218 232 255 273 284 288 282 277 273 269 275 279 271 262 262 263 261 260 258 258 258 261 264 268 271 273 275 275 273 273 274 275 280 286 295 308 323 333
244 244 244 246 246 244 245 246 250 258 261 252 242 242 244 246 246 240 232 230 236 235 228 227 229 225 234 270 299 306 305 297 289 285 280 278 277 271 267 267 265 261 258 256 254 254 255 258 261 265 269 272 272 269 269 271 275 280 284 286 291 306 321
246 248 248 251 251 249 247 243 244 251 253 243 238 243 249 258 264 261 253 250 248 244 241 243 235 221 227 268 301 305 300 291 285 281 278 277 276 273 270 267 263 261 258 257 256 254 254 254 256 258 262 264 263 261 260 263 268 274 278 280 284 294 307
244 246 248 252 254 253 250 244 239 241 243 240 241 244 247 254 261 263 262 257 245 236 235 235 220 215 238 279 295 292 285 279 279 280 280 280 278 275 271 267 264 262 259 258 257 256 255 253 252 252 252 252 252 253 254 256 261 271 278 281 286 293 301
244 243 244 250 253 253 249 241 235 238 241 237 233 235 241 246 249 252 254 246 231 223 220 214 212 230 262 276 275 273 271 273 279 281 278 276 272 269 267 264 263 262 260 259 257 257 256 253 251 248 244 241 243 247 250 253 261 273 279 281 286 292 297
249 248 247 247 250 249 243 237 237 236 233 229 227 233 239 239 241 242 231 210 202 207 209 212 225 248 258 250 253 260 263 271 276 272 268 266 263 265 265 263 263 262 262 261 259 258 257 254 251 245 237 236 240 244 247 254 266 276 280 283 289 292 295
261 256 251 246 244 240 235 236 239 235 228 229 235 239 237 233 234 230 211 195 193 203 212 223 234 239 230 226 234 241 245 252 252 249 258 269 276 285 283 277 271 264 261 260 258 259 257 250 244 239 236 236 238 241 247 259 271 278 283 288 292 292 295
279 267 258 247 236 231 233 239 242 238 235 238 238 236 234 230 225 213 202 199 203 210 219 222 216 209 208 214 219 221 226 234 239 253 271 283 299 311 314 308 298 281 269 260 252 250 245 236 230 230 233 233 235 244 255 267 275 280 285 289 288 290 295
292 277 265 250 236 232 237 244 247 244 242 244 241 232 225 217 209 204 202 204 208 212 212 203 194 195 202 209 211 211 222 238 254 275 286 300 312 315 317 319 317 311 303 290 273 255 233 219 219 224 229 234 243 255 265 272 276 280 282 284 285 290 295
299 288 272 255 243 239 239 243 248 246 243 246 244 233 219 207 203 205 205 203 204 204 197 188 186 192 199 203 205 207 226 253 275 287 294 304 310 313 316 318 317 317 315 312 311 304 260 230 228 231 238 247 256 264 270 274 278 280 282 285 288 293 297
272 278 275 261 246 239 236 236 239 236 232 231 228 220 215 211 208 207 203 194 189 188 184 182 185 191 196 199 202 211 233 259 279 292 302 309 314 318 321 321 320 318 315 313 311 299 268 251 246 248 254 259 263 269 275 280 282 284 287 291 295 299 302
250 249 247 251 243 229 220 221 221 216 212 211 207 206 212 212 206 202 195 184 177 177 181 183 186 190 195 201 208 220 239 264 285 300 311 318 324 327 327 326 323 316 308 303 295 284 272 264 261 262 263 266 272 278 282 286 289 292 293 295 298 300 301
245 241 233 237 243 232 216 214 215 207 201 201 202 203 204 201 197 193 188 183 181 181 182 184 187 192 199 206 217 232 249 270 290 307 319 325 329 331 330 327 318 305 297 291 284 279 276 271 269 269 270 274 278 281 285 288 291 293 295 296 298 299 299
237 234 231 234 239 236 225 223 222 215 207 201 197 196 193 190 190 190 189 189 187 184 182 184 188 196 205 217 235 249 260 273 286 300 309 314 321 326 327 321 308 298 294 291 287 283 280 278 275 274 276 279 282 284 286 287 288 291 294 296 298 299 299
238 233 232 231 229 227 227 228 224 218 216 212 207 205 201 194 191 191 190 189 186 182 183 186 192 205 221 235 246 251 255 263 272 283 293 301 310 317 316 308 301 296 293 292 289 284 281 280 278 277 279 283 286 287 288 289 291 294 295 297 298 300 301
245 240 234 226 222 222 223 226 223 219 218 217 213 209 205 201 198 194 189 187 186 185 188 194 202 214 226 233 236 240 247 256 266 276 285 295 302 306 305 302 300 298 296 293 288 283 279 278 278 279 283 287 290 293 294 295 297 298 299 301 303 305 307